Wind_Speed
13 12 11 11 10 12 13 12 13 13 12 12 13 15 14 16 17 15 19 20 20 22 26 27 25 26 28 29 32 32 36 37 40 41 42 46 49 49 50 46 41 43 47
17 16 15 15 14 14 14 15 15 13 15 17 16 15 17 16 17 17 21 24 23 24 24 26 25 30 32 34 36 39 43 44 44 41 42 42 43 49 45 45 45 50 48
21 21 18 18 18 19 20 19 18 18 16 16 16 17 17 18 18 20 22 23 26 31 31 32 31 32 34 38 44 48 49 46 43 44 41 38 39 34 44 48 50 55 53
26 25 24 22 21 21 23 23 22 19 20 20 21 21 21 21 21 22 24 27 28 29 34 38 36 35 37 37 43 45 45 46 47 44 43 41 40 43 48 54 59 57 57
27 26 25 26 27 26 24 26 27 24 24 25 26 26 26 27 29 29 28 29 32 33 33 34 37 39 37 38 39 43 41 44 47 47 43 47 47 51 52 52 52 61 66
30 30 30 29 29 30 32 29 28 27 27 29 29 31 34 36 34 34 35 34 35 35 34 33 36 36 38 41 39 39 42 45 47 48 49 46 50 48 55 57 59 60 59
35 35 35 34 33 33 32 33 31 31 32 32 34 36 38 41 37 35 38 41 40 39 38 37 38 38 41 44 44 45 47 47 51 52 51 51 52 63 65 59 60 57 68
41 40 38 37 35 33 34 32 34 36 36 37 36 38 39 40 38 37 39 43 44 42 42 40 41 42 45 47 49 49 49 53 55 55 54 59 61 64 63 62 60 66 63
46 45 42 41 43 38 39 36 36 37 38 40 40 39 40 38 40 38 38 40 42 44 45 46 47 48 49 51 52 53 54 56 59 59 60 62 62 67 66 62 62 74 76
44 45 48 47 49 47 43 44 44 44 47 43 41 39 37 39 37 37 40 41 44 45 46 48 49 50 52 54 56 58 58 60 62 64 65 67 65 69 71 66 70 65 68
46 46 47 49 53 53 48 51 51 48 51 48 52 44 38 44 43 43 43 47 47 47 48 49 53 56 58 58 59 60 60 61 64 64 63 67 74 68 70 67 64 75 75
47 44 50 49 51 56 56 55 57 57 55 50 52 51 43 46 50 50 57 51 46 48 50 50 52 58 59 61 64 64 65 66 69 66 66 66 68 70 76 73 79 78 77
53 54 56 54 56 57 59 60 62 60 54 55 57 54 49 49 52 56 60 58 58 63 53 55 62 61 60 61 59 62 66 68 66 70 70 68 71 75 78 76 79 85 85
51 55 56 57 57 55 53 57 58 57 59 61 64 53 56 58 62 51 63 71 65 49 60 64 68 78 72 66 63 63 65 70 73 71 68 71 72 73 74 77 81 87 90
51 54 57 58 57 62 63 61 61 61 62 62 65 61 62 63 67 71 70 65 66 70 72 75 72 83 76 66 69 71 69 71 70 69 72 73 70 73 79 84 89 92 95
56 47 54 57 56 58 56 53 52 53 61 61 58 61 63 64 67 62 67 66 65 75 78 76 76 76 65 62 64 65 65 66 65 63 66 70 74 78 83 86 89 92 93
56 54 49 56 63 58 56 55 50 53 52 62 67 63 62 59 51 61 63 69 74 77 77 66 57 54 58 61 59 58 59 61 65 69 74 78 82 84 87 90 92 93 93
43 55 61 65 56 39 56 58 54 56 62 63 44 53 64 70 74 71 69 74 78 78 58 52 51 58 57 61 62 64 67 71 74 77 78 80 82 85 89 92 94 95 97
43 46 49 59 56 52 49 30 52 57 43 43 50 52 67 72 73 70 67 58 55 52 52 54 51 56 60 62 67 72 73 75 78 81 84 86 88 91 94 95 96 100 103
42 42 41 45 40 39 48 45 53 45 42 45 42 42 44 43 47 46 49 50 51 51 55 53 54 59 67 73 76 77 80 82 83 85 87 88 89 91 94 98 101 105 108
38 39 37 35 36 35 35 37 41 46 42 42 41 43 45 46 47 49 54 57 58 58 60 64 69 73 74 76 78 80 82 83 83 83 85 89 92 95 99 103 106 109 108
38 38 38 38 38 39 40 39 41 44 45 48 47 46 45 47 47 50 54 60 62 65 67 71 75 76 77 78 80 80 80 82 84 87 91 95 99 101 102 104 104 102 98
41 41 41 42 41 42 43 44 46 47 49 51 52 54 53 53 57 59 61 65 68 71 72 73 74 75 77 77 80 83 85 88 91 94 96 96 96 96 95 94 91 87 83
41 42 42 43 43 46 48 49 51 52 53 56 59 60 61 63 64 66 68 69 68 68 69 71 72 76 79 82 85 88 90 91 93 90 89 88 86 83 81 78 76 73 68
45 44 44 44 45 47 49 51 52 54 56 58 59 60 60 61 60 61 63 65 67 70 72 75 79 81 84 86 87 85 82 81 81 79 78 76 73 71 69 64 57 50 46
45 45 45 47 48 48 49 49 52 52 53 54 56 59 61 63 65 67 69 72 74 77 79 80 79 79 77 74 73 72 71 70 69 68 66 64 62 58 52 44 38 35 33
Wind_Direction
250 265 281 291 296 301 292 291 298 299 294 285 290 267 265 259 259 262 259 252 247 241 239 240 240 249 254 259 267 268 277 283 285 281 286 290 282 283 277 281 278 288 287
241 246 267 278 291 284 283 288 285 292 282 284 289 273 277 277 267 266 273 270 266 261 257 252 249 255 259 260 266 272 279 283 286 287 285 293 284 281 275 276 273 294 287
247 249 255 270 279 275 276 279 288 290 280 271 273 278 279 278 280 275 273 276 272 266 263 262 262 264 272 271 270 273 276 279 282 283 285 293 292 276 277 279 280 288 288
255 257 259 259 259 268 271 281 282 276 275 275 277 276 277 277 282 283 279 278 277 277 270 263 265 277 281 280 274 275 273 276 280 280 284 290 290 286 277 283 288 284 287
256 261 262 262 264 264 275 273 273 276 278 278 274 276 278 283 281 278 277 272 273 274 276 268 265 276 280 283 279 276 272 274 281 280 284 286 291 290 285 288 290 286 292
255 261 265 267 269 272 278 273 266 270 277 282 280 278 284 287 283 273 270 269 267 268 270 269 269 274 276 277 277 275 271 271 276 279 282 287 281 290 287 292 291 285 292
258 259 263 264 268 272 272 270 268 270 273 280 282 285 288 285 279 269 266 266 265 265 265 263 267 270 270 273 275 274 274 276 277 280 283 281 285 282 288 291 290 288 293
263 263 263 266 266 266 267 270 267 271 276 280 282 285 285 288 277 273 266 265 265 265 264 262 263 266 269 271 274 276 276 278 279 282 286 284 285 287 288 287 286 288 286
260 262 262 265 266 264 264 264 265 270 274 279 274 282 286 288 281 278 272 268 267 268 267 267 269 272 274 275 276 278 279 280 284 286 286 286 285 285 286 285 289 276 281
260 260 257 256 260 261 266 267 269 271 269 264 266 278 278 281 286 280 277 277 273 271 272 272 273 275 276 279 281 281 283 284 284 286 288 287 280 284 286 283 285 285 277
261 262 262 259 261 263 259 259 259 264 265 269 269 268 268 273 279 285 280 277 277 277 278 280 280 280 280 281 282 283 284 284 284 284 279 284 288 283 283 283 272 283 282
251 256 261 262 260 260 263 263 261 263 264 273 274 271 269 270 272 277 274 272 274 274 275 274 280 283 280 280 281 280 280 280 282 283 281 282 281 280 286 280 275 278 281
253 254 253 257 262 267 265 268 263 263 261 260 262 262 268 266 266 271 274 273 283 278 272 280 285 284 280 279 279 281 279 279 284 282 280 283 282 283 280 273 274 277 285
254 257 258 255 257 262 263 260 259 260 262 263 264 261 271 265 263 270 270 271 262 282 277 282 280 285 278 273 275 278 280 280 282 282 282 282 283 280 273 272 278 283 285
257 257 257 258 254 258 261 258 264 261 258 262 266 266 264 270 261 256 258 263 274 282 284 281 282 287 269 271 272 274 276 275 275 277 277 279 280 277 277 279 281 284 286
253 260 262 260 260 258 261 261 264 264 260 270 269 266 260 266 267 268 281 266 282 277 274 280 281 279 274 270 268 267 268 271 272 276 278 282 285 286 287 291 292 293 294
258 256 263 256 256 258 259 264 265 267 265 267 268 264 270 273 254 271 268 272 275 281 281 279 274 269 271 267 270 279 285 287 288 288 289 289 289 289 291 292 292 292 292
276 261 258 256 258 249 249 256 263 266 260 258 259 255 264 271 271 270 270 268 272 273 267 269 268 271 270 273 279 283 283 287 288 291 291 291 292 292 292 292 292 293 293
276 277 272 277 279 268 258 240 253 248 253 255 262 260 258 263 267 268 269 268 265 260 266 278 277 272 273 278 288 289 292 291 291 292 292 292 292 292 292 293 294 294 294
276 278 278 276 279 279 272 278 260 258 265 268 272 273 267 265 269 271 270 277 277 278 278 274 273 275 281 287 291 292 292 292 292 291 291 292 292 293 293 294 295 295 296
276 277 281 282 284 285 286 281 274 272 272 273 273 273 280 284 280 282 280 278 278 280 279 278 282 288 287 286 288 290 292 292 292 293 293 294 294 295 296 297 297 296 297
269 271 274 274 275 278 281 280 281 281 281 282 283 284 283 278 280 281 279 277 277 280 281 278 282 284 286 288 291 292 292 293 294 295 297 297 298 299 299 299 298 299 300
270 273 275 275 276 275 276 276 278 278 277 276 280 285 284 285 285 284 284 284 285 285 285 287 289 290 292 293 294 296 296 297 298 298 299 300 300 300 300 300 301 301 302
273 273 273 275 277 279 280 280 279 280 281 281 283 287 288 287 288 286 286 287 288 289 289 290 293 294 295 296 296 297 298 298 299 300 300 300 301 301 302 303 304 304 305
280 278 277 278 279 280 281 282 285 286 287 287 287 288 288 288 288 288 289 290 291 293 294 295 295 295 296 297 298 299 299 300 300 301 301 302 303 304 304 305 306 307 309
280 281 281 282 283 283 285 287 287 287 287 287 287 288 289 290 291 292 293 294 294 294 295 296 297 297 298 298 299 300 301 302 303 304 304 305 306 306 307 308 310 313 315
Height
5693 5694 5694 5695 5695 5694 5694 5694 5695 5695 5696 5697 5698 5699 5700 5700 5701 5701 5704 5706 5707 5709 5711 5712 5711 5712 5714 5715 5716 5715 5714 5713 5711 5711 5711 5708 5704 5704 5703 5701 5699 5699 5697
5689 5690 5691 5691 5691 5692 5691 5692 5692 5692 5693 5693 5694 5694 5694 5694 5695 5696 5697 5698 5700 5701 5702 5701 5704 5705 5705 5707 5707 5705 5703 5702 5699 5698 5698 5695 5691 5689 5689 5688 5687 5686 5685
5684 5685 5686 5687 5687 5687 5687 5688 5688 5688 5687 5687 5688 5689 5690 5690 5690 5691 5692 5692 5692 5693 5693 5694 5696 5696 5696 5695 5695 5694 5693 5691 5690 5688 5687 5684 5681 5679 5679 5678 5677 5674 5672
5678 5679 5681 5682 5681 5681 5681 5682 5682 5682 5683 5683 5683 5683 5683 5684 5685 5686 5686 5685 5684 5684 5684 5684 5684 5685 5685 5684 5682 5681 5681 5680 5679 5677 5675 5674 5673 5672 5670 5668 5665 5660 5657
5669 5671 5673 5674 5674 5675 5676 5677 5676 5676 5677 5677 5677 5677 5678 5678 5678 5678 5677 5676 5676 5676 5676 5676 5676 5676 5675 5674 5672 5671 5670 5669 5668 5666 5662 5662 5659 5658 5656 5653 5650 5647 5642
5662 5664 5664 5666 5667 5668 5669 5670 5670 5670 5671 5670 5671 5671 5670 5669 5671 5670 5668 5667 5666 5667 5668 5668 5668 5668 5666 5664 5662 5660 5659 5657 5655 5653 5651 5651 5647 5643 5642 5638 5635 5632 5629
5654 5655 5656 5657 5659 5661 5660 5661 5663 5663 5662 5663 5662 5661 5661 5659 5659 5659 5658 5657 5656 5657 5657 5657 5657 5658 5655 5653 5651 5648 5647 5645 5643 5641 5639 5637 5634 5632 5629 5627 5622 5615 5612
5644 5646 5647 5648 5650 5650 5651 5652 5654 5654 5653 5652 5652 5651 5650 5649 5648 5648 5647 5644 5643 5645 5645 5645 5644 5643 5641 5639 5637 5635 5632 5631 5629 5628 5625 5624 5621 5617 5614 5611 5606 5602 5599
5633 5635 5637 5637 5637 5638 5639 5642 5642 5641 5642 5642 5641 5641 5640 5639 5637 5638 5637 5635 5633 5632 5632 5633 5632 5631 5630 5627 5625 5622 5620 5617 5615 5613 5610 5608 5605 5602 5597 5595 5591 5586 5580
5618 5620 5622 5623 5624 5625 5629 5629 5630 5629 5630 5629 5630 5631 5629 5628 5627 5627 5626 5626 5624 5622 5620 5619 5619 5618 5617 5615 5612 5610 5607 5604 5601 5597 5595 5593 5590 5584 5580 5577 5572 5568 5563
5610 5609 5610 5612 5612 5612 5615 5616 5616 5616 5616 5618 5616 5618 5616 5616 5615 5615 5614 5613 5611 5610 5608 5607 5605 5603 5601 5599 5596 5593 5590 5588 5585 5582 5579 5576 5570 5564 5561 5555 5552 5549 5543
5597 5597 5596 5598 5600 5599 5600 5601 5602 5603 5605 5603 5603 5604 5603 5603 5603 5602 5600 5598 5597 5594 5593 5591 5590 5589 5585 5583 5580 5577 5574 5571 5568 5564 5562 5557 5552 5547 5543 5539 5535 5529 5523
5583 5583 5583 5584 5584 5585 5586 5585 5586 5586 5588 5589 5588 5588 5589 5589 5588 5587 5585 5582 5581 5579 5577 5577 5574 5571 5569 5566 5563 5560 5557 5554 5550 5545 5542 5537 5532 5528 5524 5519 5514 5509 5502
5568 5569 5569 5570 5570 5570 5571 5571 5571 5571 5572 5572 5570 5569 5572 5571 5569 5565 5565 5564 5559 5559 5560 5559 5555 5552 5551 5547 5544 5541 5538 5535 5531 5525 5520 5516 5512 5508 5504 5499 5492 5484 5478
5552 5553 5553 5554 5555 5555 5555 5555 5556 5556 5556 5556 5556 5557 5557 5555 5539 5539 5548 5549 5547 5545 5543 5540 5537 5533 5528 5525 5524 5522 5518 5514 5510 5505 5501 5497 5492 5487 5482 5475 5468 5462 5455
5537 5539 5538 5538 5540 5541 5540 5540 5540 5537 5540 5539 5538 5539 5539 5538 5538 5537 5533 5525 5527 5527 5521 5519 5517 5514 5510 5508 5504 5502 5497 5492 5489 5485 5480 5476 5471 5465 5458 5451 5444 5435 5429
5523 5524 5523 5523 5523 5525 5525 5523 5524 5524 5524 5520 5518 5520 5518 5515 5512 5521 5518 5514 5514 5510 5506 5501 5498 5496 5494 5489 5486 5482 5478 5475 5470 5465 5459 5454 5449 5443 5436 5428 5420 5412 5404
5509 5508 5506 5502 5503 5502 5505 5507 5509 5509 5510 5506 5494 5499 5500 5499 5499 5498 5496 5495 5493 5490 5487 5484 5482 5480 5476 5472 5469 5466 5462 5457 5451 5445 5439 5432 5426 5419 5411 5402 5393 5385 5376
5495 5495 5494 5489 5486 5489 5492 5485 5490 5490 5488 5487 5488 5481 5484 5484 5483 5481 5479 5476 5474 5472 5469 5468 5465 5462 5459 5454 5450 5446 5441 5436 5430 5422 5416 5409 5401 5393 5385 5375 5366 5357 5348
5482 5482 5481 5480 5477 5475 5475 5474 5475 5473 5473 5472 5473 5470 5469 5467 5466 5464 5462 5460 5458 5456 5453 5450 5446 5444 5440 5435 5431 5424 5419 5413 5406 5399 5391 5384 5376 5367 5358 5348 5337 5327 5316
5469 5468 5468 5466 5464 5463 5462 5462 5462 5461 5460 5458 5458 5456 5455 5453 5451 5449 5447 5444 5442 5440 5436 5433 5428 5423 5418 5413 5408 5402 5395 5388 5381 5372 5365 5358 5349 5340 5329 5316 5305 5295 5282
5456 5455 5454 5453 5452 5450 5449 5448 5447 5447 5447 5446 5443 5441 5440 5438 5436 5433 5430 5427 5424 5421 5418 5414 5409 5403 5397 5391 5384 5377 5370 5363 5356 5347 5339 5330 5319 5307 5296 5285 5274 5262 5250
5443 5442 5441 5440 5439 5438 5436 5434 5432 5432 5431 5429 5427 5426 5423 5421 5418 5415 5412 5409 5405 5400 5395 5390 5386 5380 5373 5367 5360 5353 5344 5336 5328 5319 5309 5299 5289 5279 5269 5258 5247 5235 5224
5429 5428 5427 5426 5424 5422 5421 5420 5419 5416 5413 5411 5408 5405 5403 5401 5399 5396 5392 5388 5383 5378 5374 5369 5361 5356 5349 5343 5336 5328 5320 5310 5302 5292 5283 5274 5265 5255 5245 5235 5225 5214 5204
5415 5414 5412 5411 5410 5409 5407 5404 5401 5397 5395 5392 5390 5387 5384 5382 5379 5375 5370 5366 5362 5356 5350 5344 5339 5332 5326 5318 5311 5302 5294 5286 5278 5270 5261 5252 5243 5234 5225 5215 5206 5197 5190
5400 5399 5397 5395 5393 5392 5389 5385 5384 5381 5378 5375 5372 5370 5366 5362 5358 5354 5349 5345 5340 5335 5329 5322 5315 5308 5302 5295 5288 5280 5273 5265 5257 5249 5241 5233 5225 5217 5210 5202 5196 5190 5185